Weather History for KBAF - October, 2013

Change the Weather History Date:

Thursday, October 31, 2013

  Actual Average Record
Temperature  
Mean Temperature 44 °F -  
Max Temperature 59 °F 53 °F 73 °F (1999)
Min Temperature 30 °F 33 °F 19 °F (2001)
Degree Days  
Heating Degree Days 20    
Moisture  
Dew Point 40 °F    
Average Humidity 94    
Maximum Humidity 100    
Minimum Humidity 87    
Precipitation  
Precipitation 0.18 in - - ()
Sea Level Pressure  
Sea Level Pressure 30.08 in    
Wind  
Wind Speed 1 mph (South)    
Max Wind Speed 14 mph    
Max Gust Speed -    
Visibility 3 miles    
Events Fog , Rain    
Averages and records for this station are not official NWS values.
T = Trace of Precipitation, MM = Missing Value Source: NWS Daily Summary

Daily Weather History Graph

Daily Weather History Graph

Search for Another Location

Airport or City:

Trip Planner

Search our weather history database for the weather conditions in past years. The results will help you decide how hot, cold, wet, or windy it might be!

Date:

Astronomy

Oct. 31, 2013 Rise Set
Actual Time 7:22 AM EDT 5:45 PM EDT
Civil Twilight 6:53 AM EDT 6:14 PM EDT
Nautical Twilight 6:20 AM EDT 6:47 PM EDT
Astronomical Twilight 5:48 AM EDT 7:20 PM EDT
Moon 4:06 AM EDT (10/31) 4:04 PM EDT (10/31)
Length of Visible Light 11h 20m
Length of Day
10h 22m
Waning Crescent, 10% of the Moon is Illuminated
Oct 31
Waning Crescent
Nov 3
New
Nov 10
First Quarter
Nov 17
Full
Nov 25
Last Quarter

Hourly Weather History & Observations

Time (EDT) Temp. Windchill Dew Point Humidity Pressure Visibility Wind Dir Wind Speed Gust Speed Precip Events Conditions
12:53 AM 35.1 °F - 33.1 °F 92% 30.25 in 8.0 mi Calm Calm - N/A   Clear
1:25 AM 33.8 °F - 32.0 °F 93% 30.23 in 7.0 mi Calm Calm - N/A   Scattered Clouds
1:28 AM 33.8 °F - 32.0 °F 93% 30.23 in 1.5 mi Calm Calm - N/A   Mostly Cloudy
1:34 AM 33.8 °F - 32.0 °F 93% 30.23 in 0.2 mi Calm Calm - N/A Fog Fog
1:53 AM 33.1 °F - 32.0 °F 96% 30.24 in 0.2 mi Calm Calm - N/A Fog Fog
1:58 AM 33.8 °F - 32.0 °F 93% 30.22 in 1.0 mi Calm Calm - N/A   Mist
2:16 AM 33.8 °F - 32.0 °F 93% 30.22 in 8.0 mi Calm Calm - N/A   Overcast
2:26 AM 32.0 °F - 30.2 °F 93% 30.22 in 1.0 mi Calm Calm - N/A   Mist
2:34 AM 32.0 °F - 30.2 °F 93% 30.22 in 0.8 mi Calm Calm - N/A   Mist
2:53 AM 32.0 °F 28.7 °F 30.9 °F 96% 30.24 in 2.5 mi North 3.5 mph - N/A   Mostly Cloudy
3:01 AM 32.0 °F - 30.2 °F 93% 30.22 in 0.8 mi Calm Calm - N/A   Mist
3:10 AM 32.0 °F - 32.0 °F 100% 30.22 in 0.2 mi Calm Calm - N/A Fog Fog
3:20 AM 33.8 °F - 32.0 °F 93% 30.22 in 0.5 mi Calm Calm - N/A Fog Fog
3:28 AM 32.0 °F - 30.2 °F 93% 30.22 in 0.2 mi Calm Calm - N/A Fog Fog
3:41 AM 33.8 °F - 32.0 °F 93% 30.21 in 1.0 mi Calm Calm - N/A   Mist
3:43 AM 33.8 °F - 32.0 °F 93% 30.21 in 3.0 mi Calm Calm - N/A   Overcast
3:53 AM 30.9 °F - 30.0 °F 96% 30.22 in 1.2 mi Calm Calm - N/A   Mostly Cloudy
4:01 AM 30.2 °F - 30.2 °F 100% 30.20 in 0.5 mi Calm Calm - N/A Fog Light Freezing Fog
4:12 AM 30.2 °F - 30.2 °F 100% 30.20 in 0.5 mi Calm Calm - N/A Fog Light Freezing Fog
4:22 AM 30.2 °F - 30.2 °F 100% 30.20 in 1.2 mi Calm Calm - N/A   Partly Cloudy
4:32 AM 30.2 °F - 30.2 °F 100% 30.20 in 2.0 mi Calm Calm - N/A   Partly Cloudy
4:45 AM 32.0 °F - 30.2 °F 93% 30.19 in 1.0 mi Calm Calm - N/A   Mist
4:53 AM 32.0 °F - 30.9 °F 96% 30.21 in 1.8 mi Calm Calm - N/A   Mostly Cloudy
4:56 AM 32.0 °F - 32.0 °F 100% 30.19 in 3.0 mi Calm Calm - N/A   Mostly Cloudy
5:53 AM 36.0 °F - 35.1 °F 97% 30.20 in 7.0 mi Calm Calm - N/A   Overcast
6:53 AM 37.0 °F - 35.1 °F 93% 30.21 in 9.0 mi Calm Calm - N/A   Overcast
7:51 AM 37.4 °F - 35.6 °F 93% 30.19 in 5.0 mi Calm Calm - N/A   Overcast
7:53 AM 37.9 °F - 36.0 °F 93% 30.21 in 5.0 mi Calm Calm - N/A   Overcast
8:31 AM 37.4 °F - 35.6 °F 93% 30.20 in 2.5 mi Calm Calm - N/A   Overcast
8:53 AM 37.9 °F - 37.0 °F 97% 30.20 in 1.2 mi Calm Calm - N/A   Overcast
9:53 AM 39.9 °F - 37.9 °F 93% 30.20 in 1.8 mi Calm Calm - N/A   Overcast
10:09 AM 41.0 °F - 37.4 °F 87% 30.18 in 2.0 mi Calm Calm - N/A   Overcast
10:22 AM 41.0 °F - 39.2 °F 93% 30.17 in 1.8 mi Calm Calm - N/A   Overcast
10:53 AM 42.1 °F - 39.9 °F 92% 30.16 in 1.8 mi Calm Calm - N/A   Overcast
11:08 AM 42.8 °F - 39.2 °F 87% 30.12 in 2.0 mi Calm Calm - N/A   Overcast
11:53 AM 43.0 °F 41.3 °F 41.0 °F 93% 30.14 in 3.0 mi NW 3.5 mph - N/A   Overcast
12:13 PM 44.6 °F 43.1 °F 41.0 °F 87% 30.12 in 2.5 mi North 3.5 mph - N/A   Overcast
12:53 PM 45.0 °F - 42.1 °F 90% 30.09 in 2.5 mi Calm Calm - N/A   Overcast
1:53 PM 46.0 °F - 43.0 °F 89% 30.05 in 2.5 mi Calm Calm - 0.00 in Rain Light Rain
1:57 PM 46.4 °F - 42.8 °F 87% 30.03 in 3.0 mi Calm Calm - 0.00 in Rain Light Rain
2:06 PM 46.4 °F - 42.8 °F 87% 30.02 in 2.5 mi Calm Calm - 0.01 in Rain Light Rain
2:53 PM 46.9 °F - 45.0 °F 93% 30.03 in 1.5 mi North 4.6 mph - 0.02 in Rain Light Rain
3:20 PM 46.4 °F - 46.4 °F 100% 29.99 in 0.8 mi Calm Calm - 0.06 in Rain Light Rain
3:29 PM 46.4 °F - 46.4 °F 100% 29.99 in 1.0 mi Calm Calm - 0.06 in Rain Light Rain
3:53 PM 48.0 °F - 46.0 °F 93% 30.00 in 1.2 mi Calm Calm - 0.09 in Rain Light Rain
4:53 PM 48.0 °F - 46.9 °F 96% 29.98 in 1.5 mi Calm Calm - 0.03 in   Overcast
5:53 PM 48.0 °F - 46.0 °F 93% 29.96 in 1.0 mi Calm Calm - 0.00 in   Overcast
6:53 PM 48.0 °F - 46.9 °F 96% 29.95 in 1.0 mi Calm Calm - 0.00 in   Overcast
7:00 PM 48.2 °F - 46.4 °F 93% 29.93 in 2.0 mi Calm Calm - N/A   Overcast
7:53 PM 48.9 °F - 48.0 °F 97% 29.93 in 2.0 mi Calm Calm - 0.00 in Rain Light Rain
8:00 PM 48.2 °F - 48.2 °F 100% 29.91 in 2.0 mi Calm Calm - 0.00 in Rain Light Rain
8:05 PM 48.2 °F - 48.2 °F 100% 29.91 in 1.8 mi South 3.5 mph - 0.00 in Rain Light Rain
8:28 PM 48.2 °F - 48.2 °F 100% 29.90 in 2.0 mi WSW 3.5 mph - 0.00 in Rain Light Rain
8:38 PM 50.0 °F - 48.2 °F 94% 29.89 in 1.8 mi Calm Calm - 0.01 in Rain Light Rain
8:53 PM 50.0 °F - 48.9 °F 96% 29.89 in 1.8 mi SSW 3.5 mph - 0.01 in Rain Light Rain
9:00 PM 51.8 °F - 50.0 °F 94% 29.88 in 1.5 mi SSW 4.6 mph - 0.00 in Rain Light Rain
9:17 PM 53.6 °F - 53.6 °F 100% 29.87 in 2.0 mi South 8.1 mph - 0.00 in Rain Light Rain
9:24 PM 57.2 °F - 55.4 °F 94% 29.86 in 4.0 mi South 8.1 mph - 0.00 in Rain Light Rain
9:53 PM 57.9 °F - 55.9 °F 93% 29.87 in 4.0 mi South 8.1 mph - 0.01 in Rain Light Rain
10:02 PM 57.2 °F - 55.4 °F 94% 29.85 in 5.0 mi South 10.4 mph - 0.01 in Rain Light Rain
10:53 PM 59.0 °F - 55.9 °F 90% 29.82 in 10.0 mi South 13.8 mph - 0.02 in Rain Light Rain
11:09 PM 57.2 °F - 55.4 °F 94% 29.80 in 10.0 mi SSE 8.1 mph - 0.00 in   Overcast
11:22 PM 57.2 °F - 55.4 °F 94% 29.80 in 8.0 mi South 9.2 mph - 0.00 in   Overcast
11:42 PM 57.2 °F - 55.4 °F 94% 29.79 in 8.0 mi South 9.2 mph - 0.00 in Rain Light Rain
11:53 PM 57.9 °F - 55.9 °F 93% 29.79 in 7.0 mi South 10.4 mph - 0.00 in Rain Light Rain